User: anonymous
Location: Unspecified
(0.0000°N, 0.0000°E)
Time: 02:47:15
(UTC+00:00)
Language:

APRIZESAT 3 - Orbit

View from above orbital plane
View from above orbital plane
View from above satellite
View from above satellite

Ground track
Ground track

The orbit data is extracted from the following two-line orbital elements,

1 35686U 09041F   14110.07828941  .00001982  00000-0  22702-3 0  4900
2 35686 098.1438 055.2059 0076742 164.2986 257.2543 14.85066921255755
Epoch (UTC): 20 April 2014 01:52:44
Eccentricity: 0.0076742
inclination: 98.1438°
perigee height: 560 km
apogee height: 667 km
right ascension of ascending node: 55.2059°
argument of perigee: 164.2986°
revolutions per day: 14.85066921
mean anomaly at epoch: 257.2543°
orbit number at epoch: 25575

The dashed part of the orbit path shows where the satellite is in the earth's shadow,  

DLR